Time,TemperatureF,DewpointF,PressureIn,WindDirection,WindDirectionDegrees,WindSpeedMPH,WindSpeedGustMPH,Humidity,HourlyPrecipIn,Conditions,Clouds,dailyrainin,SoftwareType,DateUTC
2013-02-06 00:00:00,42.1,37.6,29.36,NW,319,3.0,4.0,84,0.00,RA,SCT,0.00,WeatherDisplay:10.37,2013-02-06 00:00:00,
2013-02-06 00:10:00,41.7,37.2,29.36,WNW,286,3.0,5.0,84,0.00,,SCT,0.00,WeatherDisplay:10.37,2013-02-06 00:10:00,
2013-02-06 00:15:00,41.5,37.1,29.36,NW,314,0.0,5.0,84,0.00,,SCT,0.00,WeatherDisplay:10.37,2013-02-06 00:15:00,
2013-02-06 00:20:00,41.5,37.1,29.36,NNW,336,6.0,7.0,84,0.00,,SCT,0.00,WeatherDisplay:10.37,2013-02-06 00:20:00,
2013-02-06 00:25:00,41.5,37.4,29.37,NNW,331,2.0,3.0,85,0.00,,SCT,0.00,WeatherDisplay:10.37,2013-02-06 00:25:00,
2013-02-06 00:30:00,41.5,37.4,29.36,NW,309,3.0,4.0,85,0.00,,SCT,0.00,WeatherDisplay:10.37,2013-02-06 00:30:00,
2013-02-06 00:35:00,41.3,37.1,29.36,NW,320,5.0,8.0,85,0.00,,SCT,0.00,WeatherDisplay:10.37,2013-02-06 00:35:00,
2013-02-06 00:40:00,40.8,36.7,29.36,North,351,3.0,8.0,85,0.00,,SCT,0.00,WeatherDisplay:10.37,2013-02-06 00:40:00,
2013-02-06 00:45:00,40.8,36.7,29.36,NW,315,2.0,3.0,85,0.00,,SCT,0.00,WeatherDisplay:10.37,2013-02-06 00:45:00,
2013-02-06 00:55:00,40.8,37.0,29.36,NW,316,8.0,10.0,86,0.00,,SCT,0.00,WeatherDisplay:10.37,2013-02-06 00:55:00,
2013-02-06 01:00:00,40.8,37.0,29.37,NW,316,3.0,10.0,86,0.00,,SCT,0.00,WeatherDisplay:10.37,2013-02-06 01:00:00,
2013-02-06 01:10:00,41.2,37.3,29.37,NW,321,3.0,5.0,86,0.00,,SCT,0.00,WeatherDisplay:10.37,2013-02-06 01:10:00,
2013-02-06 01:15:00,41.4,37.5,29.37,North,6,2.0,5.0,86,0.00,,SCT,0.00,WeatherDisplay:10.37,2013-02-06 01:15:00,
2013-02-06 01:20:00,41.2,37.4,29.37,NNW,346,5.0,5.0,86,0.00,,SCT,0.00,WeatherDisplay:10.37,2013-02-06 01:20:00,
2013-02-06 01:30:00,41.2,37.3,29.37,NW,313,0.0,3.0,86,0.00,,SCT,0.00,WeatherDisplay:10.37,2013-02-06 01:30:00,
2013-02-06 01:35:00,41.0,37.2,29.37,NW,325,0.0,2.0,86,0.00,,SCT,0.00,WeatherDisplay:10.37,2013-02-06 01:35:00,
2013-02-06 01:40:00,40.8,37.0,29.38,North,356,2.0,3.0,86,0.00,,SCT,0.00,WeatherDisplay:10.37,2013-02-06 01:40:00,
2013-02-06 01:45:00,40.8,37.0,29.38,NW,326,3.0,4.0,86,0.00,,SCT,0.00,WeatherDisplay:10.37,2013-02-06 01:45:00,
2013-02-06 01:55:00,40.6,36.8,29.39,WNW,297,3.0,5.0,86,0.00,,SCT,0.00,WeatherDisplay:10.37,2013-02-06 01:55:00,
2013-02-06 02:00:00,40.8,37.0,29.39,NW,307,2.0,5.0,86,0.00,,SCT,0.00,WeatherDisplay:10.37,2013-02-06 02:00:00,
2013-02-06 02:05:00,40.9,37.0,29.39,NNW,327,2.0,6.0,86,0.00,,SCT,0.00,WeatherDisplay:10.37,2013-02-06 02:05:00,
2013-02-06 02:10:00,41.0,37.1,29.39,NW,323,0.0,6.0,86,0.00,,SCT,0.00,WeatherDisplay:10.37,2013-02-06 02:10:00,
2013-02-06 02:20:00,41.2,37.3,29.38,NNW,340,1.0,5.0,86,0.00,,SCT,0.00,WeatherDisplay:10.37,2013-02-06 02:20:00,
2013-02-06 02:25:00,41.2,37.3,29.39,NW,311,1.0,5.0,86,0.00,,SCT,0.00,WeatherDisplay:10.37,2013-02-06 02:25:00,
2013-02-06 02:30:00,41.2,37.3,29.39,NNE,22,2.0,3.0,86,0.00,,SCT,0.00,WeatherDisplay:10.37,2013-02-06 02:30:00,
2013-02-06 02:35:00,41.0,37.2,29.39,NW,319,0.0,3.0,86,0.00,,SCT,0.00,WeatherDisplay:10.37,2013-02-06 02:35:00,
2013-02-06 02:40:00,41.0,37.1,29.39,WNW,299,1.0,3.0,86,0.00,,SCT,0.00,WeatherDisplay:10.37,2013-02-06 02:40:00,
2013-02-06 02:45:00,41.0,37.1,29.39,NW,311,0.0,3.0,86,0.00,,SCT,0.00,WeatherDisplay:10.37,2013-02-06 02:45:00,
2013-02-06 02:55:00,40.8,37.3,29.40,NE,50,0.0,2.0,87,0.04,RA,SCT,0.04,WeatherDisplay:10.37,2013-02-06 02:55:00,
2013-02-06 03:00:00,40.8,37.3,29.40,NE,35,1.0,2.0,87,0.00,RA,SCT,0.04,WeatherDisplay:10.37,2013-02-06 03:00:00,
2013-02-06 03:05:00,40.6,37.4,29.40,NNE,14,3.0,4.0,88,0.00,,SCT,0.04,WeatherDisplay:10.37,2013-02-06 03:05:00,
2013-02-06 03:15:00,40.3,37.0,29.41,West,273,2.0,2.0,88,0.00,,SCT,0.04,WeatherDisplay:10.37,2013-02-06 03:15:00,
2013-02-06 03:20:00,40.3,37.3,29.42,WSW,248,1.0,2.0,89,0.00,,SCT,0.04,WeatherDisplay:10.37,2013-02-06 03:20:00,
2013-02-06 03:30:00,40.1,37.1,29.42,ENE,74,0.0,3.0,89,0.00,RA,SCT,0.06,WeatherDisplay:10.37,2013-02-06 03:30:00,
2013-02-06 03:40:00,39.9,37.2,29.43,WNW,295,0.0,3.0,90,0.00,,SCT,0.06,WeatherDisplay:10.37,2013-02-06 03:40:00,
2013-02-06 03:45:00,39.7,37.0,29.43,West,279,0.0,0.0,90,0.00,,SCT,0.06,WeatherDisplay:10.37,2013-02-06 03:45:00,
2013-02-06 03:55:00,39.6,36.9,29.44,WNW,299,1.0,1.0,90,0.02,RA,SCT,0.08,WeatherDisplay:10.37,2013-02-06 03:55:00,
2013-02-06 04:00:00,39.4,36.7,29.44,SW,224,1.0,2.0,90,0.00,RA,SCT,0.08,WeatherDisplay:10.37,2013-02-06 04:00:00,
2013-02-06 04:05:00,39.4,36.7,29.44,SSW,207,0.0,1.0,90,0.00,,SCT,0.08,WeatherDisplay:10.37,2013-02-06 04:05:00,
2013-02-06 04:10:00,39.4,36.7,29.44,WSW,246,0.0,1.0,90,0.00,,SCT,0.08,WeatherDisplay:10.37,2013-02-06 04:10:00,
2013-02-06 04:15:00,39.6,36.9,29.45,NE,36,3.0,4.0,90,0.00,,SCT,0.08,WeatherDisplay:10.37,2013-02-06 04:15:00,
2013-02-06 04:20:00,39.4,37.0,29.45,NE,51,2.0,3.0,91,0.00,,SCT,0.08,WeatherDisplay:10.37,2013-02-06 04:20:00,
2013-02-06 04:25:00,39.6,37.2,29.46,North,352,2.0,3.0,91,0.00,,SCT,0.08,WeatherDisplay:10.37,2013-02-06 04:25:00,
2013-02-06 04:30:00,39.5,37.1,29.46,East,92,0.0,3.0,91,0.02,RA,SCT,0.10,WeatherDisplay:10.37,2013-02-06 04:30:00,
2013-02-06 04:40:00,39.6,37.2,29.46,SE,127,0.0,2.0,91,0.00,,SCT,0.10,WeatherDisplay:10.37,2013-02-06 04:40:00,
2013-02-06 04:45:00,39.4,37.0,29.47,SSE,155,0.0,2.0,91,0.00,,SCT,0.10,WeatherDisplay:10.37,2013-02-06 04:45:00,
2013-02-06 04:55:00,39.4,37.0,29.47,WSW,252,0.0,1.0,91,0.00,,SCT,0.10,WeatherDisplay:10.37,2013-02-06 04:55:00,
2013-02-06 05:00:00,39.4,37.2,29.48,SSE,156,1.0,1.0,92,0.00,,SCT,0.10,WeatherDisplay:10.37,2013-02-06 05:00:00,
2013-02-06 05:05:00,39.4,37.2,29.49,NNE,17,0.0,3.0,92,0.00,,SCT,0.10,WeatherDisplay:10.37,2013-02-06 05:05:00,
2013-02-06 05:10:00,39.2,37.1,29.49,NNE,21,2.0,2.0,92,0.00,,SCT,0.10,WeatherDisplay:10.37,2013-02-06 05:10:00,
2013-02-06 05:15:00,39.2,37.0,29.49,NNE,21,1.0,2.0,92,0.00,,SCT,0.10,WeatherDisplay:10.37,2013-02-06 05:15:00,
2013-02-06 05:20:00,39.0,36.9,29.50,East,81,5.0,5.0,92,0.00,,SCT,0.10,WeatherDisplay:10.37,2013-02-06 05:20:00,
2013-02-06 05:25:00,39.0,36.9,29.50,East,92,3.0,4.0,92,0.00,,SCT,0.10,WeatherDisplay:10.37,2013-02-06 05:25:00,
2013-02-06 05:30:00,39.1,36.9,29.51,SE,144,0.0,4.0,92,0.00,,SCT,0.10,WeatherDisplay:10.37,2013-02-06 05:30:00,
2013-02-06 05:35:00,39.4,37.2,29.51,South,183,0.0,2.0,92,0.00,,SCT,0.10,WeatherDisplay:10.37,2013-02-06 05:35:00,
2013-02-06 05:45:00,39.4,37.2,29.52,SSW,197,1.0,2.0,92,0.00,,SCT,0.10,WeatherDisplay:10.37,2013-02-06 05:45:00,
2013-02-06 05:55:00,39.4,37.2,29.53,South,188,1.0,2.0,92,0.00,,SCT,0.10,WeatherDisplay:10.37,2013-02-06 05:55:00,
2013-02-06 06:00:00,39.4,37.0,29.53,East,86,1.0,5.0,91,0.00,,SCT,0.10,WeatherDisplay:10.37,2013-02-06 06:00:00,
2013-02-06 06:10:00,39.4,37.0,29.54,ENE,59,3.0,3.0,91,0.00,,SCT,0.10,WeatherDisplay:10.37,2013-02-06 06:10:00,
2013-02-06 06:15:00,39.4,37.0,29.54,ENE,68,0.0,4.0,91,0.00,,SCT,0.10,WeatherDisplay:10.37,2013-02-06 06:15:00,
2013-02-06 06:20:00,39.2,36.8,29.55,ENE,74,3.0,4.0,91,0.00,,SCT,0.10,WeatherDisplay:10.37,2013-02-06 06:20:00,
2013-02-06 06:30:00,39.0,36.6,29.55,WNW,287,3.0,5.0,91,0.00,,SCT,0.10,WeatherDisplay:10.37,2013-02-06 06:30:00,
2013-02-06 06:35:00,38.8,36.4,29.55,West,260,2.0,2.0,91,0.00,,SCT,0.10,WeatherDisplay:10.37,2013-02-06 06:35:00,
2013-02-06 06:40:00,39.0,36.6,29.56,South,174,1.0,2.0,91,0.00,,SCT,0.10,WeatherDisplay:10.37,2013-02-06 06:40:00,
2013-02-06 06:45:00,39.0,36.3,29.57,East,83,5.0,9.0,90,0.00,,SCT,0.10,WeatherDisplay:10.37,2013-02-06 06:45:00,
2013-02-06 06:55:00,39.2,35.9,29.59,SSW,196,2.0,5.0,88,0.00,,SCT,0.10,WeatherDisplay:10.37,2013-02-06 06:55:00,
2013-02-06 07:00:00,39.0,35.5,29.59,ESE,121,7.0,10.0,87,0.00,,SCT,0.10,WeatherDisplay:10.37,2013-02-06 07:00:00,
2013-02-06 07:10:00,39.0,35.2,29.60,East,83,2.0,7.0,86,0.00,,SCT,0.10,WeatherDisplay:10.37,2013-02-06 07:10:00,
2013-02-06 07:15:00,39.0,34.9,29.61,NNE,32,8.0,11.0,85,0.00,,SCT,0.10,WeatherDisplay:10.37,2013-02-06 07:15:00,
2013-02-06 07:20:00,38.8,34.4,29.61,North,8,2.0,11.0,84,0.00,,SCT,0.10,WeatherDisplay:10.37,2013-02-06 07:20:00,
2013-02-06 07:25:00,38.8,34.4,29.62,NE,36,5.0,5.0,84,0.00,,SCT,0.10,WeatherDisplay:10.37,2013-02-06 07:25:00,
2013-02-06 07:35:00,38.5,33.8,29.63,SE,126,5.0,5.0,83,0.00,,SCT,0.10,WeatherDisplay:10.37,2013-02-06 07:35:00,
2013-02-06 07:40:00,38.3,33.9,29.64,ESE,110,5.0,6.0,84,0.00,,SCT,0.10,WeatherDisplay:10.37,2013-02-06 07:40:00,
2013-02-06 07:45:00,38.3,33.9,29.65,NE,50,7.0,14.0,84,0.00,,SCT,0.10,WeatherDisplay:10.37,2013-02-06 07:45:00,
2013-02-06 07:55:00,37.9,33.8,29.65,NE,42,7.0,8.0,85,0.00,,SCT,0.10,WeatherDisplay:10.37,2013-02-06 07:55:00,
2013-02-06 08:05:00,37.4,33.6,29.67,ENE,77,2.0,4.0,86,0.00,,SCT,0.10,WeatherDisplay:10.37,2013-02-06 08:05:00,
2013-02-06 08:10:00,37.2,33.4,29.67,ENE,74,6.0,9.0,86,0.00,,SCT,0.10,WeatherDisplay:10.37,2013-02-06 08:10:00,
2013-02-06 08:15:00,37.2,33.4,29.67,East,84,3.0,5.0,86,0.00,,SCT,0.10,WeatherDisplay:10.37,2013-02-06 08:15:00,
2013-02-06 08:25:00,37.2,33.4,29.68,ENE,77,2.0,3.0,86,0.00,,SCT,0.10,WeatherDisplay:10.37,2013-02-06 08:25:00,
2013-02-06 08:30:00,37.0,33.2,29.68,SE,134,2.0,3.0,86,0.00,,SCT,0.10,WeatherDisplay:10.37,2013-02-06 08:30:00,
2013-02-06 08:35:00,37.0,33.2,29.69,East,86,2.0,2.0,86,0.00,,SCT,0.10,WeatherDisplay:10.37,2013-02-06 08:35:00,
2013-02-06 08:40:00,36.7,32.9,29.69,NNW,331,2.0,4.0,86,0.00,,SCT,0.10,WeatherDisplay:10.37,2013-02-06 08:40:00,
2013-02-06 08:45:00,36.7,33.2,29.69,WNW,287,0.0,2.0,87,0.00,,SCT,0.10,WeatherDisplay:10.37,2013-02-06 08:45:00,
2013-02-06 08:55:00,36.5,33.0,29.70,NW,320,1.0,1.0,87,0.00,,SCT,0.10,WeatherDisplay:10.37,2013-02-06 08:55:00,
2013-02-06 09:05:00,36.3,32.8,29.70,NW,312,2.0,2.0,87,0.00,,SCT,0.10,WeatherDisplay:10.37,2013-02-06 09:05:00,
2013-02-06 09:15:00,36.5,33.3,29.71,East,92,1.0,5.0,88,0.00,,SCT,0.10,WeatherDisplay:10.37,2013-02-06 09:15:00,
2013-02-06 09:20:00,36.9,33.7,29.71,ESE,122,3.0,3.0,88,0.00,,SCT,0.10,WeatherDisplay:10.37,2013-02-06 09:20:00,
2013-02-06 09:25:00,37.2,34.0,29.71,ENE,78,1.0,2.0,88,0.00,,SCT,0.10,WeatherDisplay:10.37,2013-02-06 09:25:00,
2013-02-06 09:30:00,37.8,34.2,29.71,NE,36,2.0,3.0,87,0.00,,SCT,0.10,WeatherDisplay:10.37,2013-02-06 09:30:00,
2013-02-06 09:35:00,37.8,34.2,29.71,NNE,24,0.0,1.0,87,0.00,,SCT,0.10,WeatherDisplay:10.37,2013-02-06 09:35:00,
2013-02-06 09:40:00,38.8,35.0,29.72,NE,40,1.0,2.0,86,0.00,,SCT,0.10,WeatherDisplay:10.37,2013-02-06 09:40:00,
2013-02-06 09:45:00,39.0,35.2,29.72,SE,138,0.0,0.0,86,0.00,,SCT,0.10,WeatherDisplay:10.37,2013-02-06 09:45:00,
2013-02-06 09:50:00,39.9,35.8,29.72,West,264,2.0,6.0,85,0.00,,SCT,0.10,WeatherDisplay:10.37,2013-02-06 09:50:00,
2013-02-06 09:55:00,40.3,35.8,29.73,WSW,246,1.0,6.0,84,0.00,,SCT,0.10,WeatherDisplay:10.37,2013-02-06 09:55:00,
2013-02-06 10:05:00,40.8,35.7,29.73,SE,137,2.0,6.0,82,0.00,,SCT,0.10,WeatherDisplay:10.37,2013-02-06 10:05:00,
2013-02-06 10:10:00,41.2,36.1,29.74,ESE,116,0.0,2.0,82,0.00,,SCT,0.10,WeatherDisplay:10.37,2013-02-06 10:10:00,
2013-02-06 10:15:00,41.2,36.1,29.74,NNW,328,5.0,5.0,82,0.00,,SCT,0.10,WeatherDisplay:10.37,2013-02-06 10:15:00,
2013-02-06 10:20:00,41.5,36.5,29.74,West,274,1.0,1.0,82,0.00,,SCT,0.10,WeatherDisplay:10.37,2013-02-06 10:20:00,
2013-02-06 10:25:00,41.2,35.8,29.75,WNW,296,6.0,6.0,81,0.00,,SCT,0.10,WeatherDisplay:10.37,2013-02-06 10:25:00,
2013-02-06 10:30:00,41.2,35.8,29.75,WNW,295,3.0,4.0,81,0.00,,SCT,0.10,WeatherDisplay:10.37,2013-02-06 10:30:00,
2013-02-06 10:35:00,41.3,35.9,29.76,West,278,3.0,4.0,81,0.00,,SCT,0.10,WeatherDisplay:10.37,2013-02-06 10:35:00,
2013-02-06 10:40:00,41.4,36.0,29.76,West,269,2.0,4.0,81,0.00,,SCT,0.10,WeatherDisplay:10.37,2013-02-06 10:40:00,
2013-02-06 10:45:00,41.4,36.0,29.76,SSW,192,1.0,3.0,81,0.00,,SCT,0.10,WeatherDisplay:10.37,2013-02-06 10:45:00,
2013-02-06 10:55:00,41.4,36.0,29.76,WNW,290,1.0,2.0,81,0.00,,SCT,0.10,WeatherDisplay:10.37,2013-02-06 10:55:00,
2013-02-06 11:00:00,41.5,36.5,29.76,ESE,120,2.0,3.0,82,0.00,,SCT,0.10,WeatherDisplay:10.37,2013-02-06 11:00:00,
2013-02-06 11:05:00,41.5,36.5,29.77,ESE,102,1.0,3.0,82,0.00,,SCT,0.10,WeatherDisplay:10.37,2013-02-06 11:05:00,
2013-02-06 11:10:00,41.5,36.5,29.77,WNW,301,2.0,3.0,82,0.00,,SCT,0.10,WeatherDisplay:10.37,2013-02-06 11:10:00,
2013-02-06 11:15:00,41.7,36.3,29.77,NW,324,5.0,5.0,81,0.00,,SCT,0.10,WeatherDisplay:10.37,2013-02-06 11:15:00,
2013-02-06 11:20:00,42.1,36.7,29.77,ENE,71,5.0,5.0,81,0.00,,SCT,0.10,WeatherDisplay:10.37,2013-02-06 11:20:00,
2013-02-06 11:25:00,42.1,36.7,29.77,ENE,67,2.0,5.0,81,0.00,,SCT,0.10,WeatherDisplay:10.37,2013-02-06 11:25:00,
2013-02-06 11:30:00,42.2,36.8,29.77,ENE,69,1.0,4.0,81,0.00,,SCT,0.10,WeatherDisplay:10.37,2013-02-06 11:30:00,
2013-02-06 11:35:00,42.5,36.8,29.77,ESE,111,2.0,3.0,80,0.00,,SCT,0.10,WeatherDisplay:10.37,2013-02-06 11:35:00,
2013-02-06 11:40:00,42.6,36.9,29.77,ESE,103,2.0,3.0,80,0.00,,SCT,0.10,WeatherDisplay:10.37,2013-02-06 11:40:00,
2013-02-06 11:45:00,43.0,37.2,29.78,SE,134,2.0,8.0,80,0.00,,SCT,0.10,WeatherDisplay:10.37,2013-02-06 11:45:00,
2013-02-06 11:50:00,43.0,36.9,29.78,South,169,3.0,5.0,79,0.00,,SCT,0.10,WeatherDisplay:10.37,2013-02-06 11:50:00,
2013-02-06 12:00:00,43.0,36.6,29.79,NNE,18,5.0,6.0,78,0.00,,SCT,0.10,WeatherDisplay:10.37,2013-02-06 12:00:00,
2013-02-06 12:10:00,43.0,36.3,29.78,ENE,60,3.0,4.0,77,0.00,,SCT,0.10,WeatherDisplay:10.37,2013-02-06 12:10:00,
2013-02-06 12:15:00,43.0,36.3,29.78,ESE,121,2.0,3.0,77,0.00,,SCT,0.10,WeatherDisplay:10.37,2013-02-06 12:15:00,
2013-02-06 12:25:00,43.2,36.1,29.79,North,354,3.0,7.0,76,0.00,,SCT,0.10,WeatherDisplay:10.37,2013-02-06 12:25:00,
2013-02-06 12:30:00,43.3,36.3,29.79,NNW,333,3.0,4.0,76,0.00,,SCT,0.10,WeatherDisplay:10.37,2013-02-06 12:30:00,
2013-02-06 12:35:00,43.4,36.4,29.79,West,272,1.0,6.0,76,0.00,,SCT,0.10,WeatherDisplay:10.37,2013-02-06 12:35:00,
2013-02-06 12:40:00,43.5,36.1,29.80,West,261,2.0,6.0,75,0.00,,SCT,0.10,WeatherDisplay:10.37,2013-02-06 12:40:00,
2013-02-06 12:45:00,43.5,36.1,29.80,ESE,115,7.0,7.0,75,0.00,,SCT,0.10,WeatherDisplay:10.37,2013-02-06 12:45:00,
2013-02-06 12:55:00,43.7,35.6,29.81,East,81,1.0,8.0,73,0.00,,SCT,0.10,WeatherDisplay:10.37,2013-02-06 12:55:00,
2013-02-06 13:00:00,43.7,35.6,29.81,East,94,2.0,9.0,73,0.00,,SCT,0.10,WeatherDisplay:10.37,2013-02-06 13:00:00,
2013-02-06 13:05:00,43.5,35.8,29.81,ESE,120,5.0,7.0,74,0.00,,SCT,0.10,WeatherDisplay:10.37,2013-02-06 13:05:00,
2013-02-06 13:10:00,43.3,35.3,29.81,ESE,111,5.0,7.0,73,0.00,,SCT,0.10,WeatherDisplay:10.37,2013-02-06 13:10:00,
2013-02-06 13:15:00,43.2,35.4,29.81,East,87,3.0,6.0,74,0.00,,SCT,0.10,WeatherDisplay:10.37,2013-02-06 13:15:00,
2013-02-06 13:20:00,43.2,35.4,29.82,NNW,336,6.0,6.0,74,0.00,,SCT,0.10,WeatherDisplay:10.37,2013-02-06 13:20:00,
2013-02-06 13:25:00,43.3,35.6,29.82,WNW,301,3.0,6.0,74,0.00,,SCT,0.10,WeatherDisplay:10.37,2013-02-06 13:25:00,
2013-02-06 13:30:00,43.3,35.6,29.82,West,279,3.0,4.0,74,0.00,,SCT,0.10,WeatherDisplay:10.37,2013-02-06 13:30:00,
2013-02-06 13:35:00,43.5,35.4,29.83,East,90,3.0,3.0,73,0.00,,SCT,0.10,WeatherDisplay:10.37,2013-02-06 13:35:00,
2013-02-06 13:40:00,43.3,35.3,29.83,ENE,77,3.0,6.0,73,0.00,,SCT,0.10,WeatherDisplay:10.37,2013-02-06 13:40:00,
2013-02-06 13:45:00,43.3,35.3,29.83,WNW,303,3.0,3.0,73,0.00,,SCT,0.10,WeatherDisplay:10.37,2013-02-06 13:45:00,
2013-02-06 13:55:00,42.6,34.6,29.83,WSW,253,3.0,3.0,73,0.00,,SCT,0.10,WeatherDisplay:10.37,2013-02-06 13:55:00,
2013-02-06 14:05:00,42.6,34.9,29.84,NW,310,2.0,4.0,74,0.00,,SCT,0.10,WeatherDisplay:10.37,2013-02-06 14:05:00,
2013-02-06 14:10:00,42.8,35.1,29.84,WNW,290,2.0,2.0,74,0.00,,SCT,0.10,WeatherDisplay:10.37,2013-02-06 14:10:00,
2013-02-06 14:15:00,43.3,35.2,29.84,WNW,284,9.0,11.0,73,0.00,,SCT,0.10,WeatherDisplay:10.37,2013-02-06 14:15:00,
2013-02-06 14:20:00,43.3,34.9,29.84,East,84,2.0,11.0,72,0.00,,SCT,0.10,WeatherDisplay:10.37,2013-02-06 14:20:00,
2013-02-06 14:25:00,43.8,35.3,29.84,ESE,110,1.0,2.0,72,0.00,,SCT,0.10,WeatherDisplay:10.37,2013-02-06 14:25:00,
2013-02-06 14:30:00,43.9,35.1,29.84,WNW,297,5.0,5.0,71,0.00,,SCT,0.10,WeatherDisplay:10.37,2013-02-06 14:30:00,
2013-02-06 14:35:00,43.6,34.8,29.85,SW,235,3.0,5.0,71,0.00,,SCT,0.10,WeatherDisplay:10.37,2013-02-06 14:35:00,
2013-02-06 14:40:00,43.3,34.2,29.85,SW,220,3.0,5.0,70,0.00,,SCT,0.10,WeatherDisplay:10.37,2013-02-06 14:40:00,
2013-02-06 14:45:00,43.2,34.0,29.85,NNE,24,2.0,8.0,70,0.00,,SCT,0.10,WeatherDisplay:10.37,2013-02-06 14:45:00,
2013-02-06 14:55:00,42.6,34.2,29.85,WSW,253,6.0,6.0,72,0.00,,SCT,0.10,WeatherDisplay:10.37,2013-02-06 14:55:00,
2013-02-06 15:00:00,43.0,34.2,29.85,WSW,253,5.0,5.0,71,0.00,,SCT,0.10,WeatherDisplay:10.37,2013-02-06 15:00:00,
2013-02-06 15:05:00,43.0,34.6,29.86,NW,314,5.0,6.0,72,0.00,,SCT,0.10,WeatherDisplay:10.37,2013-02-06 15:05:00,
2013-02-06 15:10:00,43.0,34.2,29.85,WNW,287,6.0,7.0,71,0.00,,SCT,0.10,WeatherDisplay:10.37,2013-02-06 15:10:00,
2013-02-06 15:15:00,43.0,34.2,29.86,WNW,291,2.0,5.0,71,0.00,,SCT,0.10,WeatherDisplay:10.37,2013-02-06 15:15:00,
2013-02-06 15:20:00,42.6,34.2,29.86,WNW,295,2.0,5.0,72,0.00,,SCT,0.10,WeatherDisplay:10.37,2013-02-06 15:20:00,
2013-02-06 15:25:00,42.4,33.7,29.86,West,277,1.0,1.0,71,0.00,,SCT,0.10,WeatherDisplay:10.37,2013-02-06 15:25:00,
2013-02-06 15:35:00,42.1,33.4,29.86,WNW,300,0.0,3.0,71,0.00,,SCT,0.10,WeatherDisplay:10.37,2013-02-06 15:35:00,
2013-02-06 15:40:00,41.8,33.4,29.87,SSW,208,2.0,3.0,72,0.00,,SCT,0.10,WeatherDisplay:10.37,2013-02-06 15:40:00,
2013-02-06 15:45:00,41.7,33.4,29.87,WSW,256,6.0,6.0,72,0.00,,SCT,0.10,WeatherDisplay:10.37,2013-02-06 15:45:00,
2013-02-06 15:55:00,40.9,32.6,29.87,West,274,2.0,2.0,72,0.00,,SCT,0.10,WeatherDisplay:10.37,2013-02-06 15:55:00,
2013-02-06 16:00:00,40.6,32.6,29.87,NW,306,2.0,2.0,73,0.00,,SCT,0.10,WeatherDisplay:10.37,2013-02-06 16:00:00,
2013-02-06 16:05:00,40.5,32.5,29.87,NNW,342,1.0,3.0,73,0.00,,SCT,0.10,WeatherDisplay:10.37,2013-02-06 16:05:00,
2013-02-06 16:10:00,40.8,32.8,29.87,West,272,2.0,5.0,73,0.00,,SCT,0.10,WeatherDisplay:10.37,2013-02-06 16:10:00,
2013-02-06 16:15:00,41.2,33.2,29.88,WNW,295,1.0,6.0,73,0.00,,SCT,0.10,WeatherDisplay:10.37,2013-02-06 16:15:00,
2013-02-06 16:20:00,41.2,32.8,29.88,West,280,2.0,6.0,72,0.00,,SCT,0.10,WeatherDisplay:10.37,2013-02-06 16:20:00,
2013-02-06 16:30:00,41.2,32.8,29.88,SSE,166,5.0,6.0,72,0.00,,SCT,0.10,WeatherDisplay:10.37,2013-02-06 16:30:00,
2013-02-06 16:35:00,41.2,32.5,29.89,WSW,258,0.0,6.0,71,0.00,,SCT,0.10,WeatherDisplay:10.37,2013-02-06 16:35:00,
2013-02-06 16:40:00,41.0,32.3,29.89,WNW,299,3.0,7.0,71,0.00,,SCT,0.10,WeatherDisplay:10.37,2013-02-06 16:40:00,
2013-02-06 16:45:00,40.8,32.5,29.90,ESE,122,5.0,7.0,72,0.00,,SCT,0.10,WeatherDisplay:10.37,2013-02-06 16:45:00,
2013-02-06 16:55:00,40.1,32.1,29.90,SW,221,5.0,5.0,73,0.00,,SCT,0.10,WeatherDisplay:10.37,2013-02-06 16:55:00,
2013-02-06 17:00:00,40.1,32.8,29.90,South,186,1.0,3.0,75,0.00,,SCT,0.10,WeatherDisplay:10.37,2013-02-06 17:00:00,
2013-02-06 17:05:00,39.4,32.1,29.91,SW,226,1.0,3.0,75,0.00,,SCT,0.10,WeatherDisplay:10.37,2013-02-06 17:05:00,
2013-02-06 17:10:00,39.0,31.8,29.91,NW,323,2.0,2.0,75,0.00,,SCT,0.10,WeatherDisplay:10.37,2013-02-06 17:10:00,
2013-02-06 17:15:00,39.0,32.1,29.92,NW,308,2.0,5.0,76,0.00,,SCT,0.10,WeatherDisplay:10.37,2013-02-06 17:15:00,
2013-02-06 17:20:00,39.0,32.1,29.92,SW,235,3.0,5.0,76,0.00,,SCT,0.10,WeatherDisplay:10.37,2013-02-06 17:20:00,
2013-02-06 17:25:00,39.2,32.3,29.92,West,271,2.0,4.0,76,0.00,,SCT,0.10,WeatherDisplay:10.37,2013-02-06 17:25:00,
2013-02-06 17:30:00,39.4,32.4,29.92,West,274,2.0,2.0,76,0.00,,SCT,0.10,WeatherDisplay:10.37,2013-02-06 17:30:00,
2013-02-06 17:35:00,39.0,32.1,29.93,WSW,243,2.0,2.0,76,0.00,,SCT,0.10,WeatherDisplay:10.37,2013-02-06 17:35:00,
2013-02-06 17:40:00,39.0,32.1,29.93,West,274,6.0,7.0,76,0.00,,SCT,0.10,WeatherDisplay:10.37,2013-02-06 17:40:00,
2013-02-06 17:45:00,39.0,32.1,29.93,NW,310,2.0,2.0,76,0.00,,SCT,0.10,WeatherDisplay:10.37,2013-02-06 17:45:00,
2013-02-06 17:55:00,39.4,32.4,29.93,South,184,2.0,5.0,76,0.00,,SCT,0.10,WeatherDisplay:10.37,2013-02-06 17:55:00,
2013-02-06 18:05:00,39.2,31.9,29.94,NW,310,2.0,4.0,75,0.00,,SCT,0.10,WeatherDisplay:10.37,2013-02-06 18:05:00,
2013-02-06 18:10:00,39.0,31.8,29.94,East,79,1.0,3.0,75,0.00,,SCT,0.10,WeatherDisplay:10.37,2013-02-06 18:10:00,
2013-02-06 18:15:00,39.0,32.1,29.94,East,88,2.0,2.0,76,0.00,,SCT,0.10,WeatherDisplay:10.37,2013-02-06 18:15:00,
2013-02-06 18:20:00,39.0,31.8,29.95,SSW,203,7.0,8.0,75,0.00,,SCT,0.10,WeatherDisplay:10.37,2013-02-06 18:20:00,
2013-02-06 18:25:00,39.0,31.8,29.95,WSW,239,1.0,3.0,75,0.00,,SCT,0.10,WeatherDisplay:10.37,2013-02-06 18:25:00,
2013-02-06 18:30:00,38.8,31.6,29.95,NE,56,2.0,3.0,75,0.00,,SCT,0.10,WeatherDisplay:10.37,2013-02-06 18:30:00,
2013-02-06 18:35:00,38.5,31.2,29.95,NE,45,2.0,3.0,75,0.00,,SCT,0.10,WeatherDisplay:10.37,2013-02-06 18:35:00,
2013-02-06 18:40:00,38.5,31.2,29.95,North,6,2.0,2.0,75,0.00,,SCT,0.10,WeatherDisplay:10.37,2013-02-06 18:40:00,
2013-02-06 18:45:00,38.5,31.6,29.96,SW,233,0.0,3.0,76,0.00,,SCT,0.10,WeatherDisplay:10.37,2013-02-06 18:45:00,
2013-02-06 18:55:00,38.3,31.4,29.97,North,7,2.0,6.0,76,0.00,,SCT,0.10,WeatherDisplay:10.37,2013-02-06 18:55:00,
2013-02-06 19:00:00,38.3,31.4,29.97,WSW,243,2.0,6.0,76,0.00,,SCT,0.10,WeatherDisplay:10.37,2013-02-06 19:00:00,
2013-02-06 19:05:00,38.1,31.2,29.97,SSW,199,3.0,5.0,76,0.00,,SCT,0.10,WeatherDisplay:10.37,2013-02-06 19:05:00,
2013-02-06 19:10:00,37.9,31.0,29.97,South,187,0.0,1.0,76,0.00,,SCT,0.10,WeatherDisplay:10.37,2013-02-06 19:10:00,
2013-02-06 19:15:00,37.9,31.4,29.97,NNW,332,2.0,3.0,77,0.00,,SCT,0.10,WeatherDisplay:10.37,2013-02-06 19:15:00,
2013-02-06 19:20:00,37.9,31.4,29.98,North,349,5.0,7.0,77,0.00,,SCT,0.10,WeatherDisplay:10.37,2013-02-06 19:20:00,
2013-02-06 19:25:00,37.9,31.0,29.98,NW,311,3.0,7.0,76,0.00,,SCT,0.10,WeatherDisplay:10.37,2013-02-06 19:25:00,
2013-02-06 19:30:00,37.9,31.0,29.98,SW,221,1.0,2.0,76,0.00,,SCT,0.10,WeatherDisplay:10.37,2013-02-06 19:30:00,
2013-02-06 19:35:00,37.8,30.9,29.98,SW,214,2.0,4.0,76,0.00,,SCT,0.10,WeatherDisplay:10.37,2013-02-06 19:35:00,
2013-02-06 19:40:00,37.4,30.8,29.98,SW,232,2.0,4.0,77,0.00,,SCT,0.10,WeatherDisplay:10.37,2013-02-06 19:40:00,
2013-02-06 19:45:00,37.2,30.6,29.99,ENE,58,2.0,4.0,77,0.00,,SCT,0.10,WeatherDisplay:10.37,2013-02-06 19:45:00,
2013-02-06 19:55:00,36.9,30.3,29.99,North,353,0.0,2.0,77,0.00,,SCT,0.10,WeatherDisplay:10.37,2013-02-06 19:55:00,
2013-02-06 20:00:00,36.7,30.1,29.99,NW,322,0.0,0.0,77,0.00,,SCT,0.10,WeatherDisplay:10.37,2013-02-06 20:00:00,
2013-02-06 20:05:00,36.7,30.5,29.99,NNW,332,0.0,0.0,78,0.00,,SCT,0.10,WeatherDisplay:10.37,2013-02-06 20:05:00,
2013-02-06 20:10:00,36.5,30.3,29.99,NW,315,1.0,3.0,78,0.00,,SCT,0.10,WeatherDisplay:10.37,2013-02-06 20:10:00,
2013-02-06 20:15:00,36.3,30.1,29.99,West,279,2.0,3.0,78,0.00,,SCT,0.10,WeatherDisplay:10.37,2013-02-06 20:15:00,
2013-02-06 20:20:00,36.3,30.1,29.99,WSW,257,0.0,2.0,78,0.00,,SCT,0.10,WeatherDisplay:10.37,2013-02-06 20:20:00,
2013-02-06 20:25:00,36.1,29.9,30.00,NW,315,0.0,8.0,78,0.00,,SCT,0.10,WeatherDisplay:10.37,2013-02-06 20:25:00,
2013-02-06 20:30:00,36.1,29.9,30.00,NW,323,1.0,4.0,78,0.00,,SCT,0.10,WeatherDisplay:10.37,2013-02-06 20:30:00,
2013-02-06 20:35:00,36.1,29.9,30.00,West,276,2.0,4.0,78,0.00,,SCT,0.10,WeatherDisplay:10.37,2013-02-06 20:35:00,
2013-02-06 20:40:00,36.1,29.9,30.00,WNW,289,1.0,3.0,78,0.00,,SCT,0.10,WeatherDisplay:10.37,2013-02-06 20:40:00,
2013-02-06 20:45:00,36.0,29.8,30.00,NNW,333,2.0,2.0,78,0.00,,SCT,0.10,WeatherDisplay:10.37,2013-02-06 20:45:00,
2013-02-06 20:55:00,35.4,28.9,30.00,NW,316,2.0,2.0,77,0.00,,SCT,0.10,WeatherDisplay:10.37,2013-02-06 20:55:00,
2013-02-06 21:00:00,35.4,28.9,30.00,NNW,336,1.0,3.0,77,0.00,,SCT,0.10,WeatherDisplay:10.37,2013-02-06 21:00:00,
2013-02-06 21:05:00,35.2,28.8,30.00,WNW,293,1.0,3.0,77,0.00,,SCT,0.10,WeatherDisplay:10.37,2013-02-06 21:05:00,
2013-02-06 21:15:00,35.1,28.6,30.00,WNW,293,0.0,6.0,77,0.00,,SCT,0.10,WeatherDisplay:10.37,2013-02-06 21:15:00,
2013-02-06 21:25:00,34.9,28.7,30.01,NNW,327,2.0,3.0,78,0.00,,SCT,0.10,WeatherDisplay:10.37,2013-02-06 21:25:00,
2013-02-06 21:30:00,34.9,28.4,30.01,North,349,2.0,3.0,77,0.00,,SCT,0.10,WeatherDisplay:10.37,2013-02-06 21:30:00,
2013-02-06 21:35:00,34.9,28.4,30.01,NNW,334,2.0,3.0,77,0.00,,SCT,0.10,WeatherDisplay:10.37,2013-02-06 21:35:00,
2013-02-06 21:40:00,34.9,28.4,30.01,North,354,3.0,4.0,77,0.00,,SCT,0.10,WeatherDisplay:10.37,2013-02-06 21:40:00,
2013-02-06 21:45:00,34.9,28.4,30.02,NNW,333,2.0,4.0,77,0.00,,SCT,0.10,WeatherDisplay:10.37,2013-02-06 21:45:00,
2013-02-06 21:55:00,34.9,28.4,30.03,WNW,297,3.0,3.0,77,0.00,,SCT,0.10,WeatherDisplay:10.37,2013-02-06 21:55:00,
2013-02-06 22:00:00,34.9,28.4,30.03,NW,310,1.0,3.0,77,0.00,,SCT,0.10,WeatherDisplay:10.37,2013-02-06 22:00:00,
2013-02-06 22:05:00,35.4,28.9,30.03,WNW,303,2.0,4.0,77,0.00,,SCT,0.10,WeatherDisplay:10.37,2013-02-06 22:05:00,
2013-02-06 22:10:00,35.4,28.6,30.03,NW,309,3.0,4.0,76,0.00,,SCT,0.10,WeatherDisplay:10.37,2013-02-06 22:10:00,
2013-02-06 22:15:00,35.4,28.6,30.03,NW,312,2.0,3.0,76,0.00,,SCT,0.10,WeatherDisplay:10.37,2013-02-06 22:15:00,
2013-02-06 22:20:00,35.4,28.6,30.03,NW,311,2.0,3.0,76,0.00,,SCT,0.10,WeatherDisplay:10.37,2013-02-06 22:20:00,
2013-02-06 22:25:00,35.9,28.8,30.03,WNW,283,1.0,3.0,75,0.00,,SCT,0.10,WeatherDisplay:10.37,2013-02-06 22:25:00,
2013-02-06 22:30:00,35.8,28.6,30.03,WSW,248,0.0,2.0,75,0.00,,SCT,0.10,WeatherDisplay:10.37,2013-02-06 22:30:00,
2013-02-06 22:35:00,35.8,28.6,30.03,NW,306,5.0,6.0,75,0.00,,SCT,0.10,WeatherDisplay:10.37,2013-02-06 22:35:00,
2013-02-06 22:40:00,35.2,28.1,30.03,NW,310,0.0,6.0,75,0.00,,SCT,0.10,WeatherDisplay:10.37,2013-02-06 22:40:00,
2013-02-06 22:45:00,34.9,27.8,30.04,NW,313,5.0,5.0,75,0.00,,SCT,0.10,WeatherDisplay:10.37,2013-02-06 22:45:00,
2013-02-06 22:55:00,34.7,27.9,30.04,WNW,285,3.0,4.0,76,0.00,,SCT,0.10,WeatherDisplay:10.37,2013-02-06 22:55:00,
2013-02-06 23:00:00,34.5,27.7,30.04,NW,310,2.0,3.0,76,0.00,,SCT,0.10,WeatherDisplay:10.37,2013-02-06 23:00:00,
2013-02-06 23:05:00,34.4,27.6,30.04,NW,326,2.0,3.0,76,0.00,,SCT,0.10,WeatherDisplay:10.37,2013-02-06 23:05:00,
2013-02-06 23:10:00,34.3,27.6,30.04,North,9,2.0,2.0,76,0.00,,SCT,0.10,WeatherDisplay:10.37,2013-02-06 23:10:00,
2013-02-06 23:15:00,34.2,27.7,30.04,NNE,18,1.0,2.0,77,0.00,,SCT,0.10,WeatherDisplay:10.37,2013-02-06 23:15:00,
2013-02-06 23:20:00,33.8,27.4,30.04,NNW,346,1.0,2.0,77,0.00,,SCT,0.10,WeatherDisplay:10.37,2013-02-06 23:20:00,
2013-02-06 23:25:00,33.6,27.2,30.05,NW,316,2.0,3.0,77,0.00,,SCT,0.10,WeatherDisplay:10.37,2013-02-06 23:25:00,
2013-02-06 23:35:00,33.6,27.5,30.05,WNW,292,1.0,2.0,78,0.00,,SCT,0.10,WeatherDisplay:10.37,2013-02-06 23:35:00,
2013-02-06 23:40:00,33.6,27.5,30.05,WNW,300,0.0,2.0,78,0.00,,SCT,0.10,WeatherDisplay:10.37,2013-02-06 23:40:00,
2013-02-06 23:45:00,33.6,27.5,30.05,West,266,2.0,4.0,78,0.00,,SCT,0.10,WeatherDisplay:10.37,2013-02-06 23:45:00,
2013-02-06 23:55:00,33.6,27.5,30.06,South,187,0.0,0.0,78,0.00,,SCT,0.10,WeatherDisplay:10.37,2013-02-06 23:55:00,